Starlink 33695

operational
NORAD ID: 63478 Int'l Des: 2025-070 Owner: SPXS Country: US Constellation: starlink
LEOCIRCULAR

About Starlink 33695

Description loading...

Live Position

Loading 3D Globe...

Upcoming Passes

Altitude History

Altitude vs Time

uPlot chart will show altitude changes over time

Two-Line Element Set

1 63478U 25070U 25354.66389881 .00015463 00000-0 57019-3 0 9994
2 63478 43.0002 342.3381 0001840 281.7772 78.2873 15.27582979 40936
Epoch: Dec 20, 2025 • Age: 9 hours

Current Status

Altitude 482.5 km
Velocity 7.63 km/s
Sub-Earth Point -0.34°S, 130.32°W
Launch Date Apr 6, 2025
Age 0.7 years
Type internet

Technical Details

Classification Payload
Mass 575.00 kg
Dry Mass 530.00 kg
Total Mass 575.00 kg
Length 0.30 m
Diameter 4.10 m
Span 29.00 m
Shape Box + pan
Manufacturer SPXS
Bus Type Starlink V2MO
Phase Status In Orbit
Owner/State SPXS/US

Large Constellations

Loading constellations...